• In Latvia
  • List of Countries
  • For 7 days
  • Water Temperature
  • Satellite Maps
  • Weather Map
  • Weather Widgets
  • user-avatar
    Login

    Hourly Weather Salta

    Today, 21 November, Tuesday

    Time Temperature Precipitation Wind Pressure Humidity
    00:00 +21°C° 0 mm 1 mps 649 mmHg 58%
    01:00 +21°C° 0 mm 1 mps 649 mmHg 58%
    02:00 +20°C° 0 mm 1 mps 649 mmHg 58%
    03:00 +20°C° 0 mm 1 mps 649 mmHg 58%
    04:00 +20°C° 0 mm 1 mps 649 mmHg 58%
    05:00 +19°C° 0 mm 1 mps 649 mmHg 58%
    06:00 +20°C° 0 mm 2 mps 650 mmHg 53%
    07:00 +22°C° 0 mm 3 mps 652 mmHg 48%
    08:00 +25°C° 0 mm 3 mps 653 mmHg 43%
    09:00 +25°C° 0 mm 4 mps 653 mmHg 44%
    10:00 +26°C° 0 mm 4 mps 653 mmHg 44%
    11:00 +26°C° 0 mm 4 mps 653 mmHg 45%
    12:00 +26°C° 0.1 mm 4 mps 653 mmHg 46%
    13:00 +26°C° 0.1 mm 4 mps 652 mmHg 46%
    14:00 +26°C° 0.1 mm 4 mps 651 mmHg 47%
    15:00 +25°C° 0 mm 4 mps 651 mmHg 49%
    16:00 +23°C° 0 mm 4 mps 650 mmHg 52%
    17:00 +23°C° 0 mm 4 mps 650 mmHg 55%
    18:00 +22°C° 0 mm 3 mps 650 mmHg 60%
    19:00 +21°C° 0 mm 3 mps 651 mmHg 65%
    20:00 +19°C° 0 mm 2 mps 651 mmHg 70%
    21:00 +19°C° 0 mm 2 mps 652 mmHg 72%
    22:00 +19°C° 0 mm 2 mps 652 mmHg 74%
    23:00 +18°C° 0 mm 2 mps 653 mmHg 76%

    Tomorrow, 22 November, Wednesday

    Time Temperature Precipitation Wind Pressure Humidity
    00:00 +18°C° 0 mm 2 mps 652 mmHg 77%
    01:00 +18°C° 0 mm 1 mps 652 mmHg 78%
    02:00 +18°C° 0 mm 1 mps 651 mmHg 80%
    03:00 +16°C° 0 mm 1 mps 651 mmHg 80%
    04:00 +16°C° 0 mm 1 mps 651 mmHg 81%
    05:00 +16°C° 0 mm 1 mps 651 mmHg 81%
    06:00 +18°C° 0 mm 1 mps 652 mmHg 78%
    07:00 +18°C° 0 mm 1 mps 652 mmHg 75%
    08:00 +19°C° 0 mm 1 mps 652 mmHg 72%
    09:00 +19°C° 0 mm 2 mps 652 mmHg 68%
    10:00 +21°C° 0 mm 2 mps 652 mmHg 63%
    11:00 +23°C° 0 mm 2 mps 652 mmHg 59%
    12:00 +23°C° 0.1 mm 2 mps 651 mmHg 60%
    13:00 +21°C° 0.1 mm 3 mps 650 mmHg 61%
    14:00 +21°C° 0.1 mm 3 mps 649 mmHg 62%
    15:00 +21°C° 0.1 mm 3 mps 649 mmHg 63%
    16:00 +21°C° 0.1 mm 3 mps 648 mmHg 63%
    17:00 +21°C° 0.1 mm 3 mps 648 mmHg 64%
    18:00 +20°C° 0 mm 2 mps 648 mmHg 68%
    19:00 +19°C° 0 mm 2 mps 649 mmHg 73%
    20:00 +18°C° 0 mm 2 mps 649 mmHg 77%
    21:00 +18°C° 0 mm 1 mps 649 mmHg 78%
    22:00 +18°C° 0 mm 1 mps 650 mmHg 79%
    23:00 +16°C° 0 mm 1 mps 650 mmHg 80%

    Day after tomorrow, 23 November, Thursday

    Time Temperature Precipitation Wind Pressure Humidity
    00:00 +16°C° 0 mm 1 mps 650 mmHg 79%
    01:00 +16°C° 0 mm 1 mps 649 mmHg 79%
    02:00 +16°C° 0 mm 1 mps 649 mmHg 78%
    03:00 +16°C° 0 mm 1 mps 649 mmHg 77%
    04:00 +16°C° 0 mm 1 mps 649 mmHg 76%
    05:00 +15°C° 0 mm 1 mps 649 mmHg 75%
    06:00 +19°C° 0 mm 1 mps 650 mmHg 64%
    07:00 +21°C° 0 mm 1 mps 651 mmHg 54%
    08:00 +24°C° 0 mm 1 mps 651 mmHg 43%
    09:00 +26°C° 0 mm 2 mps 652 mmHg 38%
    10:00 +28°C° 0 mm 2 mps 652 mmHg 33%
    11:00 +30°C° 0 mm 3 mps 652 mmHg 28%
    12:00 +31°C° 0 mm 3 mps 651 mmHg 27%
    13:00 +33°C° 0 mm 4 mps 651 mmHg 26%
    14:00 +33°C° 0 mm 4 mps 650 mmHg 24%
    15:00 +33°C° 0 mm 4 mps 650 mmHg 26%
    16:00 +32°C° 0 mm 4 mps 649 mmHg 28%
    17:00 +32°C° 0 mm 4 mps 648 mmHg 30%
    18:00 +28°C° 0 mm 3 mps 648 mmHg 39%
    19:00 +26°C° 0 mm 3 mps 648 mmHg 47%
    20:00 +23°C° 0 mm 2 mps 648 mmHg 55%
    21:00 +23°C° 0 mm 2 mps 648 mmHg 58%
    22:00 +22°C° 0 mm 1 mps 649 mmHg 61%
    23:00 +22°C° 0 mm 1 mps 649 mmHg 63%

    24 November, Friday

    Time Temperature Precipitation Wind Pressure Humidity
    00:00 +21°C° 0 mm 1 mps 649 mmHg 64%
    01:00 +21°C° 0 mm 1 mps 648 mmHg 65%
    02:00 +21°C° 0 mm 1 mps 648 mmHg 65%
    03:00 +21°C° 0 mm 1 mps 648 mmHg 66%
    04:00 +20°C° 0 mm 1 mps 648 mmHg 66%
    05:00 +20°C° 0 mm 1 mps 648 mmHg 67%
    06:00 +22°C° 0 mm 1 mps 649 mmHg 58%
    07:00 +25°C° 0 mm 1 mps 650 mmHg 50%
    08:00 +27°C° 0 mm 2 mps 651 mmHg 41%
    09:00 +28°C° 0 mm 2 mps 651 mmHg 38%
    10:00 +30°C° 0 mm 3 mps 651 mmHg 35%
    11:00 +33°C° 0 mm 4 mps 651 mmHg 32%
    12:00 +33°C° 0 mm 4 mps 651 mmHg 31%
    13:00 +34°C° 0 mm 4 mps 650 mmHg 30%
    14:00 +35°C° 0 mm 4 mps 649 mmHg 29%
    15:00 +35°C° 0 mm 4 mps 649 mmHg 31%
    16:00 +34°C° 0 mm 4 mps 648 mmHg 33%
    17:00 +34°C° 0 mm 4 mps 647 mmHg 35%
    18:00 +30°C° 0.1 mm 3 mps 648 mmHg 42%
    19:00 +28°C° 0.1 mm 3 mps 648 mmHg 49%
    20:00 +26°C° 0.1 mm 2 mps 648 mmHg 56%
    21:00 +25°C° 0.1 mm 1 mps 648 mmHg 58%
    22:00 +25°C° 0.1 mm 1 mps 649 mmHg 59%
    23:00 +24°C° 0.1 mm 1 mps 649 mmHg 61%

    25 November, Saturday

    Time Temperature Precipitation Wind Pressure Humidity
    00:00 +24°C° 0 mm 1 mps 649 mmHg 62%
    01:00 +24°C° 0 mm 1 mps 649 mmHg 63%
    02:00 +23°C° 0 mm 1 mps 648 mmHg 64%
    03:00 +23°C° 0 mm 1 mps 649 mmHg 65%
    04:00 +23°C° 0 mm 1 mps 649 mmHg 66%
    05:00 +21°C° 0 mm 2 mps 649 mmHg 67%
    06:00 +23°C° 0 mm 2 mps 650 mmHg 64%
    07:00 +24°C° 0 mm 2 mps 651 mmHg 62%
    08:00 +25°C° 0 mm 2 mps 652 mmHg 60%
    09:00 +26°C° 0 mm 3 mps 652 mmHg 57%
    10:00 +27°C° 0 mm 3 mps 652 mmHg 55%
    11:00 +28°C° 0 mm 3 mps 652 mmHg 53%
    12:00 +28°C° 0.1 mm 3 mps 651 mmHg 52%
    13:00 +28°C° 0.1 mm 4 mps 651 mmHg 51%
    14:00 +29°C° 0.1 mm 4 mps 650 mmHg 49%
    15:00 +28°C° 0.1 mm 4 mps 650 mmHg 50%
    16:00 +27°C° 0.1 mm 3 mps 649 mmHg 51%
    17:00 +27°C° 0.1 mm 3 mps 649 mmHg 51%
    18:00 +25°C° 0 mm 3 mps 649 mmHg 57%
    19:00 +24°C° 0 mm 2 mps 650 mmHg 63%
    20:00 +21°C° 0 mm 2 mps 650 mmHg 68%
    21:00 +22°C° 0 mm 1 mps 650 mmHg 72%
    22:00 +21°C° 0 mm 1 mps 650 mmHg 75%
    23:00 +21°C° 0 mm 1 mps 650 mmHg 78%

    26 November, Sunday

    Time Temperature Precipitation Wind Pressure Humidity
    00:00 +20°C° 0 mm 1 mps 650 mmHg 79%
    01:00 +20°C° 0 mm 1 mps 649 mmHg 80%
    02:00 +20°C° 0 mm 1 mps 649 mmHg 81%
    03:00 +17°C° 0 mm 0 mps 649 mmHg 82%
    04:00 +17°C° 0 mm 0 mps 649 mmHg 83%
    05:00 +17°C° 0 mm 0 mps 648 mmHg 84%
    06:00 +21°C° 0 mm 1 mps 649 mmHg 76%
    07:00 +23°C° 0 mm 1 mps 650 mmHg 67%
    08:00 +25°C° 0 mm 1 mps 651 mmHg 59%
    09:00 +26°C° 0 mm 2 mps 650 mmHg 53%
    10:00 +28°C° 0 mm 2 mps 650 mmHg 47%
    11:00 +30°C° 0 mm 3 mps 650 mmHg 41%
    12:00 +31°C° 0 mm 3 mps 649 mmHg 39%
    13:00 +33°C° 0 mm 3 mps 648 mmHg 36%
    14:00 +33°C° 0 mm 4 mps 647 mmHg 34%
    15:00 +33°C° 0 mm 4 mps 647 mmHg 36%
    16:00 +33°C° 0 mm 4 mps 646 mmHg 37%
    17:00 +32°C° 0 mm 4 mps 646 mmHg 39%
    18:00 +29°C° 0 mm 3 mps 646 mmHg 46%
    19:00 +27°C° 0 mm 2 mps 646 mmHg 53%
    20:00 +25°C° 0 mm 1 mps 646 mmHg 60%
    21:00 +24°C° 0 mm 1 mps 646 mmHg 62%
    22:00 +24°C° 0 mm 1 mps 646 mmHg 65%
    23:00 +23°C° 0 mm 1 mps 646 mmHg 67%
    Show more